Location: Newark
(40.3500°N, 15.2333°E)
Time: 03:20:00
(UTC+00:00)

NOAA 15 - Pass Details

Date: 23 February 2020
Orbit: 797 x 813 km, 98.7° (Epoch: 04 April)

Event Time Altitude Azimuth Distance (km) Brightness Sun altitude
Rises 18:47:06 0° 206° (SSW) 3,319 8.0 -24.3°
Reaches altitude 10° 18:50:09 10° 224° (SW) 2,394 7.5 -24.9°
Maximum altitude 18:53:46 18° 268° (W) 1,879 7.3 -25.6°
Drops below altitude 10° 18:57:23 10° 311° (NW) 2,408 7.8 -26.3°
Sets 19:00:29 0° 330° (NNW) 3,345 8.4 -26.8°
